Location: Newark
(44.3681°N, 100.3364°W)
Time: 08:43:37
(UTC+00:00)

S-56A Canister/Altair - Pass Details

Date: 08 March 2020
Orbit: 634 x 2498 km, 38.9° (Epoch: 08 April)

Event Time Altitude Azimuth Distance (km) Brightness Sun altitude
Rises 13:03:31 0° 228° (SW) 4,124 10.9 -1.1°
Reaches altitude 10° 13:06:04 10° 222° (SW) 3,380 10.5 -0.7°
Maximum altitude 13:14:27 47° 151° (SSE) 2,213 10.3 0.8°
Drops below altitude 10° 13:26:30 10° 84° (E) 4,806 13.5 2.9°
Sets 13:30:54 0° 80° (E) 5,991 13.7 3.7°
